Home > Weather > Stafford > Past weeks

Flag for United Kingdom Past Weather in Stafford, England, United Kingdom — Yesterday and Last 2 Weeks

Now
64 °F

Scattered clouds.


Feels Like: 64 °F
Forecast: 53 / 65 °F
Wind: 12 mph from Northwest

Location: Shawbury

Current Time: Jun 25, 2016 at 3:06:49 PM

Latest Report: Jun 25, 2016 at 1:50 PM


Visibility: N/A

Pressure: 30.01 "Hg

Humidity: 68%

Dew Point: 54 °F

Location of StaffordLocation

Past Weather in Stafford — Graph

°F

Stafford Temperature Yesterday

Maximum temperature yesterday: 64 °F (at 10:50 AM)
Minimum temperature yesterday: 52 °F (at 10:50 PM)
Average temperature yesterday: 58 °F

High & Low Weather Summary for the Past Weeks

 TemperatureHumidityPressure
High72 °F (Jun 10, 1:50 PM)100% (Jun 10, 10:50 PM)30.21 "Hg (Jun 10, 10:50 PM)
Low46 °F (Jun 21, 4:50 AM)53% (Jun 23, 3:50 PM)29.33 "Hg (Jun 14, 3:50 PM)
Average59 °F84%29.82 "Hg
* Reported Jun 10 1:50 PM — Jun 25 1:50 PM, Stafford, Weather by CustomWeather, © 2016

Note: Actual official high and low records may vary slightly from our data, if they occured in-between our weather recording intervals... More about our weather records

Advertising

Stafford Weather History for the Previous 24 Hours

Scroll right to see more
 ConditionsComfort  
Time TempWeatherWind HumidityBarometerVisibility
1:50 PM
Sat, Jun 25
64 °FScattered clouds.12 mph68%30.01 "HgN/A
12:50 PM61 °FBroken clouds.8 mph77%30.01 "HgN/A
11:50 AM57 °FLots of rain. Scattered clouds.10 mph88%30.01 "Hg2 mi
10:50 AM59 °FScattered clouds.8 mph77%30.04 "HgN/A
9:50 AM57 °FBroken clouds.7 mph82%30.04 "HgN/A
8:50 AM57 °FPartly sunny.6 mph82%30.04 "HgN/A
7:50 AM57 °FPartly sunny.5 mph82%30.01 "HgN/A
6:50 AM55 °FPartly sunny.5 mph88%30.01 "HgN/A
5:50 AM54 °FPartly sunny.5 mph94%30.01 "HgN/A
4:50 AM54 °FPartly cloudy.3 mph88%29.98 "HgN/A
3:50 AM52 °FSprinkles. Overcast.3 mph94%29.98 "HgN/A
2:50 AM52 °FSprinkles. Overcast.6 mph94%30.01 "HgN/A
1:50 AM54 °FPassing clouds.6 mph88%30.01 "HgN/A
12:50 AM54 °FPassing clouds.6 mph82%30.01 "HgN/A
11:50 PM
Fri, Jun 24
54 °FPassing clouds.5 mph82%30.01 "HgN/A
10:50 PM52 °FCool.6 mph88%30.01 "HgN/A
9:50 PM54 °FPassing clouds.5 mph82%30.01 "HgN/A
8:50 PM57 °FPassing clouds.5 mph77%30.01 "HgN/A
7:50 PM61 °FPassing clouds.13 mph63%29.98 "HgN/A
6:50 PM61 °FPassing clouds.16 mph63%29.98 "HgN/A
5:50 PM64 °FScattered clouds.17 mph56%29.98 "HgN/A
4:50 PM64 °FScattered clouds.10 mph64%29.98 "HgN/A
3:50 PM63 °FScattered clouds.13 mph68%29.98 "HgN/A
Weather by CustomWeather, © 2016

See weather overviewHow to use our weather pages